GW1022 Weather Reports


time (UTC)temp
F
wind
direction
speed
knots
gust
knots
rain 1hr
in
rain 24hr
in
rain mn
in
humidity
%
barometer
mb
20260507141518 48 74 0.0 1.7 0.00 0.00 0.00 85 1021.5
20260507140012 48 62 0.0 0.9 0.00 0.00 0.00 85 1021.3
20260507134529 48 51 0.0 0.0 0.00 0.00 0.00 86 1021.2
20260507133037 48 51 0.0 0.9 0.00 0.00 0.00 85 1021.1
20260507131543 48 50 0.0 1.7 0.00 0.00 0.00 85 1021.0
20260507130058 48 63 0.0 0.0 0.00 0.00 0.00 86 1021.1
20260507124556 48 63 0.0 0.9 0.00 0.00 0.00 86 1021.0
20260507123101 48 63 0.0 0.0 0.00 0.00 0.00 86 1021.2
20260507121603 48 63 0.0 0.0 0.00 0.00 0.00 84 1021.3
20260507120007 49 63 0.0 0.0 0.00 0.00 0.00 85 1021.5
20260507114506 48 63 0.0 0.9 0.00 0.00 0.00 84 1021.6
20260507113029 48 63 0.0 0.0 0.00 0.00 0.00 83 1021.7
20260507111543 49 63 0.0 0.9 0.00 0.00 0.00 83 1021.7
20260507110052 49 53 0.0 0.9 0.00 0.00 0.00 82 1021.8
20260507104606 49 52 0.0 0.9 0.00 0.00 0.00 82 1021.8
20260507101511 49 72 0.0 0.9 0.00 0.00 0.00 83 1021.9
20260507100036 49 89 0.0 0.9 0.00 0.00 0.00 84 1021.9
20260507094543 49 88 0.0 0.9 0.00 0.00 0.00 82 1021.9
20260507093046 49 69 0.0 2.6 0.00 0.00 0.00 82 1021.9
20260507091558 49 72 0.0 2.6 0.00 0.00 0.00 82 1021.9
20260507090017 50 76 0.0 0.9 0.00 0.00 0.00 83 1021.7
20260507084536 50 76 0.0 3.5 0.00 0.00 0.00 83 1021.8
20260507083043 50 58 0.0 0.9 0.00 0.00 0.00 83 1021.9
20260507081549 50 77 0.0 1.7 0.00 0.00 0.00 82 1021.9
20260507080052 50 66 0.0 3.5 0.00 0.00 0.00 83 1021.9
20260507074557 50 71 0.9 2.6 0.00 0.00 0.00 83 1022.0
20260507073103 51 91 0.0 3.5 0.00 0.00 0.00 83 1021.9
20260507073008 51 91 0.0 3.5 0.00 0.00 0.00 83 1021.9
20260507071509 51 73 0.9 2.6 0.00 0.00 0.00 84 1021.9
20260507070025 51 46 0.0 5.2 0.00 0.00 0.00 84 1021.8
20260507064519 51 65 0.0 0.9 0.00 0.00 0.00 84 1021.7
20260507063030 51 76 0.0 2.6 0.00 0.00 0.00 84 1021.7
20260507061545 51 65 0.0 0.9 0.00 0.00 0.00 84 1021.7
20260507060012 52 59 0.0 2.6 0.00 0.00 0.00 84 1021.8
20260507054610 52 21 1.7 5.2 0.00 0.00 0.00 83 1021.9
20260507053003 52 64 0.9 4.3 0.00 0.00 0.00 84 1021.8
20260507051521 52 67 1.7 5.2 0.00 0.00 0.00 83 1021.8
20260507050026 53 44 0.0 1.7 0.00 0.00 0.00 84 1021.7
20260507044547 53 41 0.9 2.6 0.00 0.00 0.00 83 1021.8
20260507043043 53 78 0.9 6.1 0.00 0.00 0.00 83 1021.8
20260507041549 53 72 0.0 1.7 0.00 0.00 0.00 83 1021.7
20260507040059 53 51 0.0 0.9 0.00 0.00 0.00 83 1021.6
20260507034515 53 42 0.0 3.5 0.00 0.00 0.00 83 1021.5
20260507033028 54 75 0.0 1.7 0.00 0.00 0.00 83 1021.4
20260507031535 54 86 0.0 0.9 0.00 0.00 0.00 83 1021.2
20260507030039 54 72 0.0 0.9 0.00 0.00 0.00 83 1021.1
20260507024554 54 96 0.0 3.5 0.00 0.00 0.00 84 1021.2
20260507023059 55 147 0.0 0.0 0.00 0.00 0.00 85 1021.0
20260507021522 55 147 0.0 0.0 0.00 0.00 0.00 84 1021.0
20260507020041 55 147 0.0 0.0 0.00 0.00 0.00 83 1021.0
20260507014535 56 147 0.0 0.0 0.00 0.00 0.00 83 1021.0
20260507013057 56 147 0.0 0.0 0.00 0.00 0.00 82 1020.9
20260507011558 56 147 0.0 0.0 0.00 0.00 0.00 81 1020.9
20260507011504 56 147 0.0 0.0 0.00 0.00 0.00 81 1020.9
20260507010022 56 147 0.0 0.0 0.00 0.00 0.00 80 1020.9
20260507004538 58 74 0.0 0.0 0.00 0.00 0.00 78 1020.9
20260507003049 58 74 0.0 0.0 0.00 0.00 0.00 77 1020.9
20260507001549 58 74 0.0 0.0 0.00 0.00 0.00 77 1021.0
20260507000012 58 74 0.0 2.6 0.00 0.00 0.00 77 1021.0
20260506234509 57 68 0.0 3.5 0.00 0.00 0.00 78 1021.1
20260506233105 57 94 0.9 2.6 0.00 0.00 0.00 78 1021.0
20260506231506 57 77 0.9 4.3 0.00 0.00 0.00 80 1021.0
20260506230023 57 74 0.0 3.5 0.00 0.00 0.00 81 1021.1
20260506224542 56 70 0.0 5.2 0.00 0.00 0.00 83 1021.1
20260506223037 55 41 0.0 2.6 0.00 0.00 0.00 83 1021.3
20260506221544 55 75 0.0 3.5 0.00 0.00 0.00 84 1021.5
20260506220059 55 44 0.9 3.5 0.00 0.00 0.00 85 1021.5
20260506214509 54 60 2.6 4.3 0.00 0.00 0.00 86 1021.5
20260506213017 54 59 0.0 2.6 0.00 0.00 0.00 88 1021.5
20260506211533 54 79 0.0 4.3 0.00 0.00 0.00 89 1021.5
20260506210037 53 46 0.0 6.1 0.00 0.00 0.00 89 1021.5
20260506204541 53 84 0.0 0.9 0.00 0.00 0.00 91 1021.4
20260506203052 53 44 0.9 1.7 0.00 0.00 0.00 91 1021.4
20260506201553 53 40 0.0 0.9 0.00 0.00 0.00 92 1021.3
20260506200101 52 291 0.0 3.5 0.00 0.00 0.00 92 1021.3
20260506194515 52 60 1.7 3.5 0.00 0.00 0.00 92 1021.3
20260506193026 52 80 0.0 1.7 0.00 0.00 0.00 93 1021.2
20260506191536 52 4 0.0 2.6 0.00 0.00 0.00 93 1021.3
20260506190049 52 51 0.0 0.9 0.00 0.00 0.00 93 1021.2
20260506184502 51 71 0.0 1.7 0.00 0.00 0.00 94 1020.9
20260506183025 51 91 0.0 3.5 0.00 0.00 0.00 94 1021.0
20260506181534 51 65 0.0 1.7 0.00 0.00 0.00 94 1021.0
20260506180036 51 304 0.0 1.7 0.00 0.00 0.00 95 1021.0
20260506174541 51 89 0.9 4.3 0.00 0.00 0.00 95 1021.1
20260506173050 51 88 0.0 1.7 0.00 0.00 0.00 95 1020.9
20260506171556 51 86 0.9 1.7 0.00 0.00 0.00 95 1020.7
20260506164600 51 75 0.0 0.9 0.00 0.00 0.00 95 1020.5
20260506163107 50 57 0.0 1.7 0.00 0.00 0.00 95 1020.4
20260506161517 50 92 0.0 0.9 0.00 0.00 0.00 95 1020.7
20260506160030 50 77 0.0 0.9 0.00 0.00 0.00 95 1020.4
20260506154535 50 77 0.0 1.7 0.00 0.00 0.00 95 1020.3
20260506153050 50 34 0.0 1.7 0.00 0.00 0.00 95 1020.5
20260506151559 50 57 0.0 0.9 0.00 0.00 0.00 95 1020.3
20260506150003 50 57 0.0 0.0 0.00 0.00 0.00 95 1019.9
20260506144529 50 58 0.0 0.0 0.00 0.00 0.00 95 1019.7
20260506143033 50 58 0.0 1.7 0.00 0.00 0.00 95 1020.1